Location: Muck Cross
(36.7179°N, 78.3678°W)
Time: 11:57:17
(UTC+00:00)

S-56A Canister/Altair - All Passes

Search period start: 30 March 2023 00:00
Search period end: 09 April 2023 00:00
Orbit: 639 x 2493 km, 38.9° (Epoch: 29 March)

Date Brightness Start Highest point End Pass type
(mag) Time Alt. Az. Time Alt. Az. Time Alt. Az.
30 Mar - 01:47:21 10° W 02:00:08 84° N 02:15:30 10° E visible
30 Mar - 03:53:05 10° WNW 04:07:20 71° SSW 04:21:48 10° SE visible
30 Mar - 06:00:23 10° W 06:12:51 33° SW 06:24:16 10° SSE visible
30 Mar - 21:06:54 10° SSW 21:14:33 44° SE 21:25:42 10° ENE daylight
30 Mar - 23:09:32 10° WSW 23:19:25 88° SSE 23:33:40 10° ENE daylight
31 Mar - 01:14:13 10° W 01:26:21 82° N 01:41:39 10° E visible
31 Mar - 03:19:40 10° WNW 03:33:34 75° SSW 03:48:25 10° ESE visible
31 Mar - 05:26:27 10° WNW 05:39:25 38° SW 05:51:37 10° SSE visible
31 Mar - 20:34:38 10° SSW 20:41:37 37° SE 20:51:38 10° ENE daylight
31 Mar - 22:36:47 10° WSW 22:46:00 84° SSE 22:59:40 10° ENE daylight
01 Apr - 00:41:10 10° W 00:52:36 81° N 01:07:43 10° E visible
01 Apr - 02:46:22 10° WNW 02:59:47 79° SSW 03:14:55 10° ESE visible
01 Apr - 04:52:41 10° WNW 05:05:54 42° SW 05:18:49 10° SSE visible
01 Apr - 07:05:43 10° WSW 07:10:06 12° SW 07:14:20 10° SW night (unlit)
01 Apr - 20:02:30 10° SSW 20:08:47 31° SE 20:17:33 10° E daylight
01 Apr - 22:04:06 10° WSW 22:12:41 79° SSE 22:25:40 10° ENE daylight
02 Apr - 00:08:12 10° W 00:18:56 81° N 00:33:44 10° E visible
02 Apr - 02:13:09 10° WNW 02:26:01 83° SSW 02:41:17 10° ESE visible
02 Apr - 04:19:04 10° WNW 04:32:19 46° SW 04:45:51 10° SSE visible
02 Apr - 06:29:46 10° W 06:36:52 15° SW 06:43:45 10° SSW visible
02 Apr - 19:30:30 10° S 19:36:01 25° SE 19:43:26 10° E daylight
02 Apr - 21:31:31 10° WSW 21:39:28 74° SSE 21:51:41 10° ENE daylight
02 Apr - 23:35:18 10° W 23:45:20 81° N 23:59:43 10° E visible
03 Apr - 01:40:01 10° WNW 01:52:16 86° SSW 02:07:33 10° ESE visible
03 Apr - 03:45:34 10° WNW 03:58:42 51° SW 04:12:44 10° SE visible
03 Apr - 05:54:49 10° W 06:03:34 18° SW 06:12:08 10° SSW visible
03 Apr - 18:58:43 10° S 19:03:20 20° SE 19:09:13 10° E daylight
03 Apr - 20:58:59 10° SW 21:06:22 67° SSE 21:17:44 10° ENE daylight
03 Apr - 23:02:28 10° W 23:11:51 81° N 23:25:40 10° E daylight
04 Apr - 01:06:58 10° WNW 01:18:34 89° S 01:33:44 10° ESE visible
04 Apr - 03:12:12 10° WNW 03:25:04 55° SSW 03:39:30 10° SE visible
04 Apr - 05:20:22 10° W 05:30:14 22° SW 05:40:05 10° S visible
04 Apr - 18:27:16 10° SSE 18:30:42 15° SE 18:34:45 10° E daylight
04 Apr - 20:26:32 10° SW 20:33:22 60° SSE 20:43:50 10° ENE daylight
04 Apr - 22:29:42 10° W 22:38:26 82° N 22:51:38 10° E daylight
05 Apr - 00:34:00 10° WNW 00:44:55 88° NNE 00:59:48 10° ESE visible
05 Apr - 02:38:55 10° WNW 02:51:25 59° SSW 03:06:06 10° SE visible
05 Apr - 04:46:16 10° W 04:56:49 25° SW 05:07:42 10° S visible
05 Apr - 17:57:07 10° SE 17:58:06 10° SE 17:59:08 10° ESE daylight
05 Apr - 19:54:08 10° SW 20:00:28 52° SSE 20:09:58 10° ENE daylight
05 Apr - 21:57:00 10° W 22:05:07 84° N 22:17:36 10° E daylight
06 Apr - 00:01:07 10° WNW 00:11:21 85° NNE 00:25:49 10° ESE visible
06 Apr - 02:05:45 10° WNW 02:17:46 64° SSW 02:32:35 10° SE visible
06 Apr - 04:12:23 10° W 04:23:22 29° SW 04:35:04 10° S visible
06 Apr - 19:21:50 10° SW 19:27:38 44° SE 19:36:09 10° ENE daylight
06 Apr - 21:24:21 10° WSW 21:31:53 87° NNW 21:43:37 10° ENE daylight
06 Apr - 23:28:16 10° W 23:37:50 83° N 23:51:48 10° E daylight
07 Apr - 01:32:41 10° WNW 01:44:09 68° SSW 01:58:58 10° SE visible
07 Apr - 03:38:43 10° W 03:49:52 32° SW 04:02:14 10° SSE visible
07 Apr - 18:49:37 10° SSW 18:54:54 36° SE 19:02:22 10° ENE daylight
07 Apr - 20:51:45 10° WSW 20:58:45 90° S 21:09:41 10° ENE daylight
07 Apr - 22:55:30 10° W 23:04:24 81° N 23:17:44 10° E daylight
08 Apr - 00:59:42 10° WNW 01:10:34 72° SSW 01:25:14 10° SE visible
08 Apr - 03:05:14 10° W 03:16:23 36° SW 03:29:13 10° SSE visible
08 Apr - 18:17:28 10° SSW 18:22:14 29° SE 18:28:37 10° E daylight
08 Apr - 20:19:13 10° WSW 20:25:43 85° SSE 20:35:50 10° ENE daylight
08 Apr - 22:22:47 10° W 22:31:02 79° N 22:43:41 10° E daylight
